Location: Unspecified
(0.0000°N, 0.0000°E)
Time: 20:23:04
(UTC+00:00)

Tiros 1 - Pass Details

Date: 20 October 2021
Orbit: 630 x 664 km, 48.4° (Epoch: 04 December)

Event Time Altitude Azimuth Distance (km) Brightness Sun altitude
Rises 08:47:23 0° 229° (SW) 2,989 10.3 44.7°
Reaches altitude 10° 08:49:48 10° 234° (SW) 2,076 9.6 45.3°
Maximum altitude 08:54:26 48° 309° (NW) 856 8.0 46.4°
Drops below altitude 10° 08:59:02 10° 23° (NNE) 2,062 9.9 47.5°
Sets 09:01:26 0° 29° (NNE) 2,967 10.7 48.1°
